Time,TemperatureF,DewpointF,PressureIn,WindDirection,WindDirectionDegrees,WindSpeedMPH,WindSpeedGustMPH,Humidity,HourlyPrecipIn,Conditions,Clouds,dailyrainin,SoftwareType,DateUTC
2013-05-20 15:32:00,60.0,58.0,29.92,SSE,150,4.0,9.0,94,0.00,,,0.00,,2013-05-20 19:32:00,
2013-05-20 15:42:00,60.0,58.0,29.92,SSE,150,4.0,9.0,94,0.00,,,0.00,,2013-05-20 19:42:00,
2013-05-20 15:53:00,59.0,57.0,29.92,South,176,6.0,12.0,92,0.00,,,0.00,,2013-05-20 19:53:00,
2013-05-20 16:01:00,60.0,58.0,29.91,SSE,148,6.0,11.0,92,0.00,,,0.00,,2013-05-20 20:01:00,
2013-05-20 16:12:00,60.0,58.0,29.91,SSE,148,6.0,11.0,92,0.00,,,0.00,,2013-05-20 20:12:00,
2013-05-20 16:21:00,60.0,57.0,29.91,SSE,160,6.0,10.0,91,0.00,,,0.00,,2013-05-20 20:21:00,
2013-05-20 16:32:00,61.0,58.0,29.91,SE,127,6.0,11.0,91,0.00,,,0.00,,2013-05-20 20:32:00,
2013-05-20 16:42:00,61.0,58.0,29.91,SE,127,6.0,11.0,91,0.00,,,0.00,,2013-05-20 20:42:00,
2013-05-20 16:52:00,60.0,57.0,29.91,SSE,150,3.0,12.0,91,0.00,,,0.00,,2013-05-20 20:52:00,
2013-05-20 17:01:00,60.0,56.0,29.91,SE,145,4.0,10.0,88,0.00,,,0.00,,2013-05-20 21:01:00,
2013-05-20 17:11:00,60.0,56.0,29.91,SE,145,4.0,10.0,88,0.00,,,0.00,,2013-05-20 21:11:00,
2013-05-20 17:22:00,60.0,57.0,29.91,SE,135,2.0,7.0,89,0.00,,,0.00,,2013-05-20 21:22:00,
2013-05-20 17:33:00,60.0,57.0,29.91,South,170,2.0,6.0,89,0.00,,,0.00,,2013-05-20 21:33:00,
2013-05-20 17:43:00,60.0,57.0,29.92,SSE,159,3.0,4.0,89,0.00,,,0.00,,2013-05-20 21:43:00,
2013-05-20 17:53:00,60.0,57.0,29.92,SSE,159,3.0,4.0,89,0.00,,,0.00,,2013-05-20 21:53:00,
2013-05-20 18:02:00,60.0,56.0,29.91,SSE,152,6.0,8.0,87,0.00,,,0.00,,2013-05-20 22:02:00,
2013-05-20 18:13:00,60.0,56.0,29.91,SSE,152,6.0,8.0,87,0.00,,,0.00,,2013-05-20 22:13:00,
2013-05-20 18:23:00,60.0,57.0,29.91,SSW,207,4.0,7.0,89,0.00,,,0.00,,2013-05-20 22:23:00,
2013-05-20 18:33:00,59.0,56.0,29.92,South,181,2.0,8.0,90,0.00,,,0.00,,2013-05-20 22:33:00,
2013-05-20 18:42:00,59.0,56.0,29.92,South,181,2.0,8.0,90,0.00,,,0.00,,2013-05-20 22:42:00,
2013-05-20 18:53:00,58.0,55.0,29.92,SW,218,3.0,7.0,91,0.00,,,0.00,,2013-05-20 22:53:00,
2013-05-20 19:03:00,58.0,56.0,29.91,SSW,204,6.0,9.0,92,0.00,,,0.00,,2013-05-20 23:03:00,
2013-05-20 19:12:00,58.0,56.0,29.91,SSW,204,6.0,9.0,92,0.00,,,0.00,,2013-05-20 23:12:00,
2013-05-20 19:22:00,59.0,57.0,29.92,SSE,160,5.0,8.0,92,0.00,,,0.00,,2013-05-20 23:22:00,
2013-05-20 19:32:00,59.0,56.0,29.93,SSW,207,2.0,6.0,91,0.00,,,0.00,,2013-05-20 23:32:00,
2013-05-20 19:42:00,59.0,56.0,29.93,SSW,207,2.0,6.0,91,0.00,,,0.00,,2013-05-20 23:42:00,
2013-05-20 19:53:00,59.0,57.0,29.93,SSE,150,1.0,3.0,92,0.00,,,0.00,,2013-05-20 23:53:00,
2013-05-20 20:01:00,59.0,57.0,29.93,SW,225,1.0,3.0,92,0.00,,,0.00,,2013-05-21 00:01:00,
2013-05-20 20:11:00,59.0,57.0,29.93,SW,225,1.0,3.0,92,0.00,,,0.00,,2013-05-21 00:11:00,
2013-05-20 20:22:00,59.0,57.0,29.93,SW,225,0.0,1.0,92,0.00,,,0.00,,2013-05-21 00:22:00,
2013-05-20 20:32:00,57.0,55.0,29.93,WSW,239,1.0,4.0,94,0.00,,,0.00,,2013-05-21 00:32:00,
2013-05-20 20:42:00,57.0,55.0,29.93,WSW,257,0.0,1.0,94,0.00,,,0.00,,2013-05-21 00:42:00,
2013-05-20 20:52:00,57.0,55.0,29.93,WSW,257,0.0,1.0,94,0.00,,,0.00,,2013-05-21 00:52:00,
2013-05-20 21:01:00,57.0,55.0,29.93,WSW,257,0.0,1.0,94,0.00,,,0.00,,2013-05-21 01:01:00,
2013-05-20 21:11:00,57.0,55.0,29.93,WSW,257,0.0,1.0,94,0.00,,,0.00,,2013-05-21 01:11:00,
2013-05-20 21:22:00,57.0,55.0,29.93,WSW,257,0.0,1.0,94,0.00,,,0.00,,2013-05-21 01:22:00,